This is the latest recevied weather packets stored in our database for station/object KO4LCK. If no packets are shown the sender has not sent any weather packets the latest 10 day(s).
| Time | Temp. | Humidity | Pressure | Rain* | Wind** | Luminosity | Snow |
|---|---|---|---|---|---|---|---|
| 1777549565 | 14.44° C | 96% | 1012.2 hPa | 0 mm | - | 49 W/m² | - |
| 1777549261 | 14.44° C | 96% | 1012.4 hPa | 0 mm | - | 56 W/m² | - |
| 1777548957 | 14.44° C | 96% | 1012.2 hPa | 0 mm | - | 49 W/m² | - |
| 1777548654 | 13.89° C | 96% | 1012.2 hPa | 0 mm | - | 37 W/m² | - |
| 1777548351 | 13.89° C | 96% | 1012.2 hPa | 0 mm | - | 27 W/m² | - |
| 1777548049 | 13.89° C | 96% | 1012.3 hPa | 0 mm | - | 19 W/m² | - |
| 1777547744 | 13.89° C | 96% | 1012.3 hPa | 0 mm | - | 16 W/m² | - |
| 1777547440 | 14.44° C | 96% | 1012 hPa | 0 mm | - | 12 W/m² | - |
| 1777547138 | 14.44° C | 96% | 1012.1 hPa | 0 mm | - | 8 W/m² | - |
| 1777546835 | 14.44° C | 96% | 1011.8 hPa | 0 mm | - | 4 W/m² | - |
| 1777546532 | 14.44° C | 96% | 1012.1 hPa | 0 mm | - | 3 W/m² | - |
| 1777546229 | 14.44° C | 96% | 1012.2 hPa | 0 mm | - | 1 W/m² | - |
| 1777545926 | 14.44° C | 96% | 1011.9 hPa | 0 mm | - | 1 W/m² | - |
| 1777545622 | 14.44° C | 96% | 1011.7 hPa | 0 mm | - | 0 W/m² | - |
| 1777545319 | 14.44° C | 96% | 1011.6 hPa | 1.78 mm | - | 0 W/m² | - |
| 1777545017 | 14.44° C | 96% | 1012.3 hPa | 1.78 mm | - | 0 W/m² | - |
| 1777544713 | 14.44° C | 96% | 1012 hPa | 0 mm | - | 0 W/m² | - |
| 1777544408 | 14.44° C | 96% | 1011.7 hPa | 0 mm | - | 0 W/m² | - |
| 1777544105 | 14.44° C | 95% | 1011.3 hPa | 0 mm | - | 0 W/m² | - |
| 1777543803 | 14.44° C | 96% | 1011.8 hPa | 0 mm | - | 0 W/m² | - |
| 1777543498 | 14.44° C | 95% | 1011.4 hPa | 1.27 mm | - | 0 W/m² | - |
| 1777543195 | 14.44° C | 95% | 1011.5 hPa | 0 mm | - | 0 W/m² | - |
| 1777542891 | 14.44° C | 95% | 1011.7 hPa | 0 mm | - | 0 W/m² | - |
| 1777542588 | 14.44° C | 95% | 1011.9 hPa | 0 mm | - | 0 W/m² | - |
| 1777542284 | 14.44° C | 95% | 1011.7 hPa | 1.78 mm | - | 0 W/m² | - |
* Rain latest hour (hover to see other rain measurements)
** Current wind speed in m/s (hover to see current wind gust speed)